TimeEST,TemperatureF,Dew PointF,Humidity,Sea Level PressureIn,VisibilityMPH,Wind Direction,Wind SpeedMPH,Gust SpeedMPH,PrecipitationIn,Events,Conditions,WindDirDegrees,DateUTC
12:15 AM,30.2,30.2,100,29.80,7.0,West,10.4,18.4,N/A,Snow,Light Snow,270,2012-12-27 05:15:00
12:35 AM,30.2,30.2,100,29.81,4.0,West,8.1,16.1,N/A,Snow,Light Snow,270,2012-12-27 05:35:00
12:55 AM,30.2,28.4,93,29.81,5.0,West,9.2,23.0,N/A,Snow,Light Snow,280,2012-12-27 05:55:00
1:15 AM,30.2,28.4,93,29.81,5.0,WNW,12.7,19.6,N/A,,Overcast,290,2012-12-27 06:15:00
1:35 AM,30.2,28.4,93,29.82,5.0,WNW,12.7,23.0,N/A,,Overcast,290,2012-12-27 06:35:00
1:55 AM,30.2,28.4,93,29.83,7.0,West,12.7,19.6,N/A,,Overcast,280,2012-12-27 06:55:00
2:15 AM,28.4,28.4,100,29.84,5.0,West,12.7,23.0,N/A,,Overcast,280,2012-12-27 07:15:00
2:35 AM,28.4,28.4,100,29.85,4.0,West,15.0,19.6,N/A,,Overcast,270,2012-12-27 07:35:00
2:55 AM,28.4,28.4,100,29.87,5.0,WNW,12.7,25.3,N/A,,Overcast,290,2012-12-27 07:55:00
3:15 AM,28.4,28.4,100,29.88,7.0,WNW,12.7,20.7,N/A,,Overcast,300,2012-12-27 08:15:00
3:35 AM,28.4,28.4,100,29.89,2.5,West,11.5,16.1,N/A,Snow,Light Snow,280,2012-12-27 08:35:00
3:55 AM,28.4,28.4,100,29.90,5.0,West,15.0,21.9,N/A,Snow,Light Snow,280,2012-12-27 08:55:00
4:15 AM,28.4,28.4,100,29.90,7.0,West,12.7,18.4,N/A,,Overcast,270,2012-12-27 09:15:00
4:55 AM,28.4,28.4,100,29.91,7.0,WNW,13.8,21.9,N/A,,Overcast,300,2012-12-27 09:55:00
5:15 AM,28.4,28.4,100,29.92,7.0,WNW,12.7,18.4,N/A,,Overcast,300,2012-12-27 10:15:00
5:35 AM,28.4,28.4,100,29.93,5.0,West,10.4,-,N/A,,Overcast,260,2012-12-27 10:35:00
5:55 AM,28.4,28.4,100,29.94,7.0,WNW,9.2,-,N/A,,Overcast,300,2012-12-27 10:55:00
6:15 AM,28.4,28.4,100,29.95,7.0,WNW,11.5,18.4,N/A,,Overcast,300,2012-12-27 11:15:00
6:35 AM,28.4,28.4,100,29.96,5.0,WNW,15.0,21.9,N/A,,Overcast,290,2012-12-27 11:35:00
6:55 AM,26.6,26.6,100,29.96,7.0,WNW,13.8,19.6,N/A,,Overcast,300,2012-12-27 11:55:00
7:15 AM,28.4,28.4,100,29.96,7.0,West,10.4,16.1,N/A,,Overcast,280,2012-12-27 12:15:00
7:35 AM,26.6,26.6,100,29.97,7.0,WNW,11.5,-,N/A,,Overcast,300,2012-12-27 12:35:00
7:55 AM,26.6,26.6,100,29.98,4.0,WNW,8.1,-,N/A,,Overcast,290,2012-12-27 12:55:00
8:15 AM,26.6,26.6,100,29.98,3.0,WNW,9.2,-,N/A,,Overcast,290,2012-12-27 13:15:00
8:35 AM,26.6,26.6,100,30.00,5.0,West,12.7,17.3,N/A,,Overcast,280,2012-12-27 13:35:00
8:55 AM,26.6,26.6,100,30.00,4.0,NW,6.9,-,N/A,,Overcast,310,2012-12-27 13:55:00
9:15 AM,26.6,26.6,100,30.01,3.0,WNW,8.1,-,N/A,,Overcast,300,2012-12-27 14:15:00
9:35 AM,26.6,26.6,100,30.01,1.2,WNW,11.5,-,N/A,,Overcast,300,2012-12-27 14:35:00
9:55 AM,28.4,28.4,100,30.01,1.2,WNW,9.2,-,N/A,Snow,Light Snow,300,2012-12-27 14:55:00
10:15 AM,28.4,28.4,100,30.02,0.5,WNW,8.1,-,N/A,Fog,Light Freezing Fog,290,2012-12-27 15:15:00
10:35 AM,28.4,28.4,100,30.02,0.2,NW,9.2,-,N/A,Fog,Light Freezing Fog,310,2012-12-27 15:35:00
10:55 AM,28.4,28.4,100,30.02,0.2,WNW,5.8,-,N/A,Fog,Light Freezing Fog,290,2012-12-27 15:55:00
11:35 AM,28.4,28.4,100,30.02,1.2,West,6.9,-,N/A,,Overcast,270,2012-12-27 16:35:00
11:55 AM,28.4,28.4,100,30.02,4.0,NW,4.6,-,N/A,,Overcast,310,2012-12-27 16:55:00
12:15 PM,28.4,28.4,100,30.01,0.5,West,6.9,-,N/A,Fog,Light Freezing Fog,280,2012-12-27 17:15:00
12:35 PM,28.4,28.4,100,30.00,0.2,West,8.1,-,N/A,Fog,Light Freezing Fog,280,2012-12-27 17:35:00
12:55 PM,28.4,28.4,100,30.01,4.0,WNW,5.8,-,N/A,,Overcast,300,2012-12-27 17:55:00
1:15 PM,28.4,28.4,100,30.00,7.0,NW,5.8,-,N/A,,Overcast,320,2012-12-27 18:15:00
1:35 PM,28.4,28.4,100,30.00,7.0,NW,4.6,-,N/A,,Overcast,320,2012-12-27 18:35:00
1:55 PM,28.4,28.4,100,30.00,4.0,WNW,4.6,-,N/A,,Overcast,290,2012-12-27 18:55:00
2:15 PM,28.4,28.4,100,30.00,4.0,NW,6.9,-,N/A,,Overcast,310,2012-12-27 19:15:00
2:35 PM,28.4,28.4,100,30.00,3.0,NW,8.1,-,N/A,,Overcast,320,2012-12-27 19:35:00
2:55 PM,28.4,28.4,100,30.01,3.0,WNW,6.9,-,N/A,,Overcast,290,2012-12-27 19:55:00
3:15 PM,28.4,28.4,100,30.02,1.5,NW,5.8,-,N/A,,Overcast,310,2012-12-27 20:15:00
3:35 PM,28.4,28.4,100,30.03,1.5,WNW,5.8,-,N/A,,Overcast,300,2012-12-27 20:35:00
3:55 PM,28.4,28.4,100,30.03,1.8,WNW,4.6,-,N/A,,Overcast,290,2012-12-27 20:55:00
4:15 PM,28.4,28.4,100,30.03,0.5,NNW,3.5,-,N/A,Fog,Light Freezing Fog,340,2012-12-27 21:15:00
4:35 PM,28.4,28.4,100,30.04,0.2,Calm,Calm,-,N/A,Fog,Light Freezing Fog,0,2012-12-27 21:35:00
4:55 PM,28.4,28.4,100,30.04,1.5,NNW,4.6,-,N/A,,Overcast,330,2012-12-27 21:55:00
5:15 PM,28.4,28.4,100,30.04,1.0,NNW,4.6,-,N/A,,Overcast,340,2012-12-27 22:15:00
5:35 PM,28.4,28.4,100,30.05,4.0,NNW,4.6,-,N/A,,Overcast,330,2012-12-27 22:35:00
5:55 PM,28.4,28.4,100,30.05,1.5,NNW,3.5,-,N/A,,Overcast,340,2012-12-27 22:55:00
6:15 PM,28.4,28.4,100,30.06,1.8,Calm,Calm,-,N/A,,Overcast,0,2012-12-27 23:15:00
6:35 PM,26.6,26.6,100,30.06,3.0,Calm,Calm,-,N/A,,Overcast,0,2012-12-27 23:35:00
6:55 PM,26.6,26.6,100,30.06,3.0,Calm,Calm,-,N/A,,Overcast,0,2012-12-27 23:55:00
7:15 PM,26.6,26.6,100,30.06,2.0,Calm,Calm,-,N/A,,Overcast,0,2012-12-28 00:15:00
7:35 PM,26.6,26.6,100,30.05,2.0,Calm,Calm,-,N/A,,Overcast,0,2012-12-28 00:35:00
7:55 PM,26.6,26.6,100,30.07,2.5,Calm,Calm,-,N/A,,Overcast,0,2012-12-28 00:55:00
8:15 PM,26.6,26.6,100,30.07,4.0,Calm,Calm,-,N/A,,Overcast,0,2012-12-28 01:15:00
8:35 PM,26.6,26.6,100,30.07,4.0,NNW,3.5,-,N/A,,Overcast,330,2012-12-28 01:35:00
8:55 PM,26.6,26.6,100,30.07,4.0,NNW,3.5,-,N/A,,Overcast,340,2012-12-28 01:55:00
9:15 PM,26.6,26.6,100,30.07,5.0,Calm,Calm,-,N/A,,Overcast,0,2012-12-28 02:15:00
9:35 PM,26.6,26.6,100,30.06,4.0,Calm,Calm,-,N/A,,Overcast,0,2012-12-28 02:35:00
9:55 PM,26.6,26.6,100,30.07,5.0,Calm,Calm,-,N/A,,Overcast,0,2012-12-28 02:55:00
10:15 PM,26.6,26.6,100,30.07,4.0,North,3.5,-,N/A,,Overcast,350,2012-12-28 03:15:00
10:35 PM,26.6,26.6,100,30.07,3.0,Calm,Calm,-,N/A,,Overcast,0,2012-12-28 03:35:00
10:55 PM,26.6,26.6,100,30.07,5.0,Calm,Calm,-,N/A,,Overcast,0,2012-12-28 03:55:00
11:15 PM,26.6,26.6,100,30.06,4.0,Calm,Calm,-,N/A,,Overcast,0,2012-12-28 04:15:00
11:35 PM,26.6,26.6,100,30.06,4.0,Calm,Calm,-,N/A,,Overcast,0,2012-12-28 04:35:00
11:55 PM,26.6,26.6,100,30.05,5.0,Calm,Calm,-,N/A,,Overcast,0,2012-12-28 04:55:00